Regional Weather Roundup
Issued by NWS Upton, NY

Home | Current Version | Previous Version | Text Only | Print | Product List | Glossary On
Versions: 1 2 3 4 5 6 7 8 9 10 11 12 13 14 15 16 17 18 19 20 21 22 23 24 25 26 27 28 29 30 31 32 33 34 35 36 37 38 39 40 41 42 43 44 45 46 47 48 49 50
000
ASUS41 KOKX 241608
RWROKX

REGIONAL WEATHER ROUNDUP
NATIONAL WEATHER SERVICE NEW YORK NY
1100 AM EST TUE JAN 24 2017

NOTE: "FAIR" INDICATES FEW OR NO CLOUDS BELOW 12,000 FEET WITH NO
SIGNIFICANT WEATHER AND/OR OBSTRUCTIONS TO VISIBILITY.

NYZ071-072-176-178-NJZ106-104-241700-
NEW YORK CITY METRO AREA

CITY           SKY/WX    TMP DP  RH WIND       PRES   REMARKS
Central Park   MIX PCPN  36  35  96 VRB7G17   29.38S WCI  30
Wall St Helipt LGT RAIN  39  37  92 NE10G18   29.35F WCI  32
LaGuardia APRT LGT RAIN  39  35  86 N15       29.35S WCI  31
Kennedy INTL   LGT RAIN  39  36  89 N20G32    29.33F WCI  29
Breezy Point     N/A     37 N/A N/A N15G22      N/A  WCI  28
Newark/Liberty LGT RAIN  38  35  89 N18G28    29.37S WCI  28
Teterboro      CLOUDY    37  34  87 N20G25    29.37F FOG     WCI  27
$$

NYZ177-179-078>081-241700-
LONG ISLAND NEW YORK

CITY           SKY/WX    TMP DP  RH WIND       PRES   REMARKS
Jones Beach      N/A     37 N/A N/A N23G29      N/A  WCI  26
Matinecock PT    N/A     37 N/A N/A NE20        N/A  WCI  27
Farmingdale    LGT RAIN  39  36  89 N23G31    29.29F FOG     WCI  28
MacArthur/ISP  DRIZZLE   38  37  97 N18G28    29.27F FOG     WCI  28
Shirley        CLOUDY    41  40  96 N14G26    29.27F FOG
Westhampton    CLOUDY    42  39  89 N20G29    29.27F
Southampton    NOT AVBL
Bridgehampton  NOT AVBL
East Hampton   CLOUDY    43  40  91 N17G25    29.25F
Montauk          N/A     44  42  93 N20G26    29.25
$$

NYZ052-065-067-241700-
HUDSON VALLEY

CITY           SKY/WX    TMP DP  RH WIND       PRES   REMARKS
White Plains   DRIZZLE   37  33  85 N16G24    29.32F WCI  28
Newburgh       CLOUDY    34  34 100 N16G25    29.44S FOG     WCI  23
Montgomery     LGT RAIN  35  32  88 NE16G26   29.42F WCI  25
Poughkeepsie   CLOUDY    34  32  92 N8        29.43F WCI  27
Albany         CLOUDY    34  30  85 N10       29.53F WCI  26
$$

NJZ001-105-106-008-010-013-015-019>022-104-241700-
NEW JERSEY

CITY           SKY/WX    TMP DP  RH WIND       PRES   REMARKS
Newark/Liberty LGT RAIN  38  35  89 N18G28    29.37S WCI  28
Teterboro      CLOUDY    37  34  87 N20G25    29.37F FOG     WCI  27
Caldwell       CLOUDY    36  33  89 VRB7G18   29.40S WCI  30
Somerville     CLOUDY    38  33  82 N8        29.40R WCI  32
Linden         NOT AVBL
Sussex         LGT RAIN  35  33  92 N9G20     29.42F FOG     WCI  28
Andover          N/A     34  33  96 N10G16    29.42F WCI  26
Trenton        LGT RAIN  37  35  92 N13G22    29.40R FOG     WCI  29
Millville      CLOUDY    40  38  93 N14G25    29.39F WCI  32
Atlantic City  LGT SNOW  38  35  89 NW21G31   29.35F FOG     WCI  28
Wrightstown    LGT RAIN  37  35  94 NW15G23   29.36R WCI  28
Toms River     LGT RAIN  37  36  96 NW14G21   29.36S FOG     WCI  28
Belmar         LGT RAIN  37  35  92 NW16G24   29.34F FOG     WCI  28
$$

PAZ047>061-062-071-241700-
EASTERN PENNSYLVANIA

CITY           SKY/WX    TMP DP  RH WIND       PRES   REMARKS
Philadelphia   CLOUDY    41  35  79 N17G26    29.42F
Allentown      CLOUDY    41  32  70 N12       29.45F
Scranton       CLOUDY    36  31  82 N13       29.48F WCI  27
$$

CTZ002-004>006-009-010-012-RIZ004-006-007-MAZ004-011-015-241700-
SOUTHERN NEW ENGLAND
 IN CT

CITY           SKY/WX    TMP DP  RH WIND       PRES   REMARKS
Bradley INTL   LGT RAIN  35  31  85 N21G29    29.43F WCI  24
Hartford       CLOUDY    36  32  85 N13G25    29.40F WCI  27
Danbury        LGT RAIN  36  30  79 N10       29.37F WCI  28
Wtrbury/Oxford NOT AVBL
Bridgeport     LGT RAIN  39  34  82 N18G28    29.32F WCI  30
Meriden        CLOUDY    37  32  82 N13G22    29.37F WCI  29
New Haven      LGT RAIN  37  34  89 N24G37    29.29F FOG     WCI  26
Chester        CLOUDY    39  37  93 N22       29.31F WCI  29
Groton         CLOUDY    45  39  79 N23G36    29.27F
Wilimantic     CLOUDY    40  36  86 N18G26    29.37F WCI  31

 IN RI

CITY           SKY/WX    TMP DP  RH WIND       PRES   REMARKS
Providence     LGT RAIN  43  40  89 N23G36    29.34F FOG
Block Island   NOT AVBL
Westerly       CLOUDY    45  39  79 N17G32    29.28F
 IN MA

CITY           SKY/WX    TMP DP  RH WIND       PRES   REMARKS
Boston         LGT RAIN  41  41 100 N29G43    29.41F FOG
Worcester      FRZ RAIN  30  28  92 NE21G30   29.40F FOG     WCI  17
Westfield      LGT RAIN  34  30  85 N15       29.45F WCI  24
Provincetown   LGT RAIN  47  46  97 NE15      29.31F VSB 1
Nantucket      CLOUDY    53  51  93 E17       29.24F FOG
$$

ANZ330-335-338-340-345-350-353-355-241700-
COASTAL MARINE OBSERVATIONS


STATION/POSITION TIME  SKY/WX   TEMP    WIND        PRES    VSBY  WAVE
                                AIR SEA DIR/SP/G                  HT/PER
                 (UTC)          (F)     (DEG/KT/KT) (MB)    (MI)  (FT/S)
NY HARB ENTRANCE 1450            40 43  360/ 21/ 27  992.0         11/11
20 S FIRE ISLAND 1550            42 46   20/ 25/ 31  989.4         12/ 8
GREAT SOUTH BAY  NOT AVBL
23 SSW MONTAUK P 1450            44 47   30/ 31/ 39  989.6         12/11
15 E BARNEGAT LI 1530               45                N/A          12/11
HUDSON CANYON    1450            50 51               986.2         15/11
KINGS POINT      1536               39                N/A
EXECUTION ROCKS  1545            38      10/ 16/ 19   N/A
CENTRAL LI SOUND 1515            42      30/ 23/ 27   N/A           5/ 5
EASTERN LI SOUND NOT AVBL
ROBBINS REEF     1536            37     360/ 19/ 24  994.3
$$


>>>>>>>>>>>>>>>>>>>>>>>>>>>> KEY <<<<<<<<<<<<<<<<<<<<<<<<<<<
>                                                          <
>     SKY/WX - Sky Condition/Present Weather               <
>     TMP    - Temperature in Fahrenheit                   <
>     DP     - Dew Point in Fahrenheit                     <
>     RH     - Relative Humidity in Percent                <
>     WIND   - Direction (from) and Speed in MPH           <
>     PRES   - Mean Sea Level Pressure (inches of Hg)      <
>     WCI    - Wind Chill Index                            <
>     VSB    - VISIBILITY IN MILES                         <
>     HX     - HEAT INDEX                                  <
>     TC     - TEMPERATURE IN CELSIUS                      <
>     VRB    - VARIABLE WIND DIRECTION                     <
>                                                          <
>>>>>>>>>>>>>>>>>>>>>>>>>>>> KEY <<<<<<<<<<<<<<<<<<<<<<<<<<<



USA.gov is the U.S. government's official web portal to all federal, state and local government web resources and services.